CZ-6A DEB, 54558

Orbit data source: Space-Track

CZ-6A DEB, 54558 is space debris in SSO originally from a launch on Fri, 11 Nov 2022 UTC launched from the Taiyaun Space Center, China (TSC). Debris objects in space refer to the collection of defunct objects orbiting the Earth. Examples of debris include non-operational satellites, rocket bodies, and fragments generated from explosions, collisions, or faulty payload assembly.

Loading next visibility...
Identifier
54558, 2022-151LJ
Orbit
SSO
Country
Flag of CNCN / PRC
Related business
Manufacturer
SAST
Mission
Spacecraft
Bus & Motor
Unknown
Mass
Unknown
Launch date (UTC)
2022-11-11 (4 years ago)
Launch vehicle
Unknown
Launch site
Taiyaun Space Center, China (TSC)
Object type
Payload
Rocket body
Debris
Shape & HBR
Unknown shape, 0.1 m
Radar Cross Section
Medium (>0.1 m² and <1 m²)

Expand to show TLE details & history
Last TLE update: 5 hours ago

TLE from 5 hours ago
0 CZ-6A DEB
1 54558U 22151LJ  26236.46583949  .00000667  00000-0  33060-3 0  9999
2 54558  98.7911 249.8344 0055864 155.7462 204.6362 14.19788390195453
Epoch: 2026-08-24T11:10Z
TLE epoch observation values (Epoch: 2026-08-24T11:10:48.531Z)
Latitude
-0.00008°
Longitude
109.38506°
Altitude
865.609 km
Speed
7.401 km/s
True Right ascension
16h 39m 20s
True Declination
0° 00' 00"
Sunlit
Object was in daylight at epoch
Visualization orbit readout
Latitude
Unknown
Longitude
Unknown
Altitude
Unknown
Speed
Unknown
Apparent Right ascension
Unknown
Apparent Declination
Unknown
Sunlit
N/A
Visualization observer readout
Local Sidereal Time
07:23:49
Azimuth
Unknown
Elevation
Unknown
Doppler factor
Unknown
Orbital elements
Apogee altitude
863.461 km
Perigee altitude
783.001 km
Semi-major axis
7,201.368 km
Eccentricity
0.00559
Inclination
98.7911°
RAAN
249.8344°
Arg. of periapsis
155.7462°
True anomaly
204.37103°
Mean anomaly
204.6362°
Eccentric anomaly
204.50345°
Mean motion
3.55157 °/min
Orbital period
101.36 mins
BSTAR
0.0003306
Loading maneuver chart data...
Computing Atmospheric mass density...
Loading historical data...
Loading historical data...
Loading historical data...
Loading historical data...
Loading historical data...
Loading historical data...
Loading historical data...

Documentation

Showing up to 5 results
|